Showing default

TJS-27A, 100174

Orbit data source: Space-Track

TJS-27A, 100174 is a payload satellite owned by PLA SSF (CN) in LEO that was launched on Thu, 30 Jul 2026 UTC launched from the Taiyaun Space Center, China (TSC). Payload-class satellites include a variety of spacecraft equipped with specific instruments for various scientific and technological missions. These include communications satellites like Starlink; space stations such as the ISS; scientific satellites like the Hubble; Earth observation satellites from companies like Planet Labs, Umbra, and HawkEye 360; GPS; miniature CubeSats for education and research; and military/defense satellites.

Loading next visibility...
Identifier
100174, 2026-173A
Orbit
LEO
Country
Flag of CNCN / PRC
Related business
Manufacturer
CAST
Mission
Operational spacecraft
Bus & Motor
TJS26A, Unknown motor
Mass
~3,000 kg wet, ~3,000 kg dry
Launch date (UTC)
2026-07-30 (2 weeks ago)
Launch vehicle
Unknown
Launch site
Taiyaun Space Center, China (TSC)
Object type
Payload
Rocket body
Debris
Shape & HBR
BOX + 2 PAN, 14.5 m
Radar Cross Section
Large (>1 m²)

Expand to show TLE details & history
Last TLE update: 7 hours ago

TLE from 7 hours ago
0 TJS-27A
1 A0174U 26173A   26227.65776323 -.00000080  00000-0 -45732-5 0  9995
2 A0174  64.7878 236.5988 0006232 235.2164 124.8279 13.28109932  2217
Epoch: 2026-08-15T15:47Z
TLE epoch observation values (Epoch: 2026-08-15T15:47:10.743Z)
Latitude
-0.00005°
Longitude
35.73853°
Altitude
1,158.443 km
Speed
7.273 km/s
True Right ascension
15h 46m 23s
True Declination
0° 00' 00"
Sunlit
Object was in daylight at epoch
Visualization orbit readout
Latitude
Unknown
Longitude
Unknown
Altitude
Unknown
Speed
Unknown
Apparent Right ascension
Unknown
Apparent Declination
Unknown
Sunlit
N/A
Visualization observer readout
Local Sidereal Time
13:37:34
Azimuth
Unknown
Elevation
Unknown
Doppler factor
Unknown
Orbital elements
Apogee altitude
1,157.267 km
Perigee altitude
1,147.88 km
Semi-major axis
7,530.71 km
Eccentricity
0.00062
Inclination
64.7878°
RAAN
236.5988°
Arg. of periapsis
235.2164°
True anomaly
124.8865°
Mean anomaly
124.8279°
Eccentric anomaly
124.8572°
Mean motion
3.32116 °/min
Orbital period
108.4 mins
BSTAR
-0.0000045732
Loading maneuver chart data...
Computing Atmospheric mass density...
Loading historical data...
Loading historical data...
Loading historical data...
Loading historical data...
Loading historical data...
Loading historical data...
Loading historical data...
Other satellites on launch #173 in the year 2026 (2026-07-30 UTC)

Documentation

Showing up to 5 results
|